Time,TemperatureF,DewpointF,PressureIn,WindDirection,WindDirectionDegrees,WindSpeedMPH,WindSpeedGustMPH,Humidity,HourlyPrecipIn,Conditions,Clouds,dailyrainin,SolarRadiationWatts/m^2,SoftwareType,DateUTC
2013-07-11 00:02:00,53.7,52.0,29.94,West,263,10.8,16.1,94,0.00,,,0.00,0.0,WeatherDisplay:10.37,2013-07-11 07:02:00,
2013-07-11 00:07:00,53.7,52.0,29.94,WNW,291,7.0,12.7,94,0.00,,,0.00,0.0,WeatherDisplay:10.37,2013-07-11 07:07:00,
2013-07-11 00:12:00,53.7,52.0,29.94,WSW,237,8.3,12.7,94,0.00,,,0.00,0.0,WeatherDisplay:10.37,2013-07-11 07:12:00,
2013-07-11 00:17:00,53.6,51.9,29.94,SW,220,7.1,10.4,94,0.00,,,0.00,0.0,WeatherDisplay:10.37,2013-07-11 07:17:00,
2013-07-11 00:22:00,53.7,52.0,29.94,WSW,237,3.5,11.5,94,0.00,,,0.00,0.0,WeatherDisplay:10.37,2013-07-11 07:22:00,
2013-07-11 00:27:00,53.7,52.0,29.94,SW,229,10.2,11.5,94,0.00,,,0.00,0.0,WeatherDisplay:10.37,2013-07-11 07:27:00,
2013-07-11 00:32:00,53.7,52.0,29.94,WSW,243,2.0,10.4,94,0.00,,,0.00,0.0,WeatherDisplay:10.37,2013-07-11 07:32:00,
2013-07-11 00:37:00,53.8,52.1,29.93,WSW,248,6.6,11.5,94,0.00,,,0.00,0.0,WeatherDisplay:10.37,2013-07-11 07:37:00,
2013-07-11 00:42:00,53.9,52.2,29.93,WSW,254,2.8,3.5,94,0.00,,,0.00,0.0,WeatherDisplay:10.37,2013-07-11 07:42:00,
2013-07-11 00:47:00,54.0,52.3,29.93,WNW,285,8.3,15.0,94,0.00,,,0.00,0.0,WeatherDisplay:10.37,2013-07-11 07:47:00,
2013-07-11 00:52:00,54.0,52.3,29.93,SSW,199,10.3,15.0,94,0.00,,,0.00,0.0,WeatherDisplay:10.37,2013-07-11 07:52:00,
2013-07-11 00:57:00,54.0,52.3,29.93,WNW,291,2.4,4.0,94,0.00,,,0.00,0.0,WeatherDisplay:10.37,2013-07-11 07:57:00,
2013-07-11 01:02:00,54.0,52.3,29.93,WSW,237,3.2,3.5,94,0.00,,,0.00,0.0,WeatherDisplay:10.37,2013-07-11 08:02:00,
2013-07-11 01:07:00,54.1,52.4,29.93,WSW,256,5.8,9.2,94,0.00,,,0.00,0.0,WeatherDisplay:10.37,2013-07-11 08:07:00,
2013-07-11 01:12:00,54.0,52.3,29.93,WNW,283,6.4,9.0,94,0.00,,,0.00,0.0,WeatherDisplay:10.37,2013-07-11 08:12:00,
2013-07-11 01:17:00,53.9,52.2,29.93,WSW,258,2.4,3.5,94,0.00,,,0.00,0.0,WeatherDisplay:10.37,2013-07-11 08:17:00,
2013-07-11 01:22:00,54.0,52.3,29.93,WSW,252,4.1,11.5,94,0.00,,,0.00,0.0,WeatherDisplay:10.37,2013-07-11 08:22:00,
2013-07-11 01:27:00,54.0,52.0,29.93,WSW,258,4.2,6.9,93,0.00,,,0.00,0.0,WeatherDisplay:10.37,2013-07-11 08:27:00,
2013-07-11 01:32:00,53.9,51.9,29.93,West,264,5.7,11.5,93,0.00,,,0.00,0.0,WeatherDisplay:10.37,2013-07-11 08:32:00,
2013-07-11 01:37:00,53.9,51.9,29.93,West,275,4.5,10.4,93,0.00,,,0.00,0.0,WeatherDisplay:10.37,2013-07-11 08:37:00,
2013-07-11 01:42:00,53.8,51.8,29.93,West,265,7.5,11.5,93,0.00,,,0.00,0.0,WeatherDisplay:10.37,2013-07-11 08:42:00,
2013-07-11 01:47:00,53.7,51.7,29.93,SW,219,8.2,10.4,93,0.00,,,0.00,0.0,WeatherDisplay:10.37,2013-07-11 08:47:00,
2013-07-11 01:52:00,53.8,51.8,29.93,SW,232,4.8,11.5,93,0.00,,,0.00,0.0,WeatherDisplay:10.37,2013-07-11 08:52:00,
2013-07-11 01:57:00,53.8,51.8,29.93,WSW,252,9.2,15.0,93,0.00,,,0.00,0.0,WeatherDisplay:10.37,2013-07-11 08:57:00,
2013-07-11 02:02:00,53.7,51.7,29.93,SW,227,8.0,11.5,93,0.00,,,0.00,0.0,WeatherDisplay:10.37,2013-07-11 09:02:00,
2013-07-11 02:07:00,53.7,52.0,29.92,WSW,246,1.0,3.5,94,0.00,,,0.00,0.0,WeatherDisplay:10.37,2013-07-11 09:07:00,
2013-07-11 02:12:00,53.7,52.0,29.92,WSW,245,4.1,9.0,94,0.00,,,0.00,0.0,WeatherDisplay:10.37,2013-07-11 09:12:00,
2013-07-11 02:17:00,53.7,52.0,29.92,SW,231,1.8,3.5,94,0.00,,,0.00,0.0,WeatherDisplay:10.37,2013-07-11 09:17:00,
2013-07-11 02:22:00,53.8,51.8,29.92,WSW,239,8.7,11.5,93,0.00,,,0.00,0.0,WeatherDisplay:10.37,2013-07-11 09:22:00,
2013-07-11 02:27:00,53.7,51.7,29.92,SW,236,6.7,11.5,93,0.00,,,0.00,0.0,WeatherDisplay:10.37,2013-07-11 09:27:00,
2013-07-11 02:32:00,53.6,51.6,29.92,WSW,248,4.4,7.0,93,0.00,,,0.00,0.0,WeatherDisplay:10.37,2013-07-11 09:32:00,
2013-07-11 02:37:00,53.5,51.8,29.92,SSW,211,2.5,6.0,94,0.00,,,0.00,0.0,WeatherDisplay:10.37,2013-07-11 09:37:00,
2013-07-11 02:42:00,53.5,51.8,29.92,SW,217,2.7,6.9,94,0.00,,,0.00,0.0,WeatherDisplay:10.37,2013-07-11 09:42:00,
2013-07-11 02:47:00,53.5,51.8,29.92,SSW,210,4.2,5.8,94,0.00,,,0.00,0.0,WeatherDisplay:10.37,2013-07-11 09:47:00,
2013-07-11 02:52:00,53.5,51.8,29.92,SW,233,2.7,3.5,94,0.00,,,0.00,0.0,WeatherDisplay:10.37,2013-07-11 09:52:00,
2013-07-11 02:57:00,53.5,51.8,29.92,WSW,239,5.0,6.9,94,0.00,,,0.00,0.0,WeatherDisplay:10.37,2013-07-11 09:57:00,
2013-07-11 03:03:00,53.4,51.4,29.92,WSW,242,3.8,7.0,93,0.00,,,0.00,0.0,WeatherDisplay:10.37,2013-07-11 10:03:00,
2013-07-11 03:08:00,53.3,51.3,29.92,SSW,204,8.3,9.2,93,0.00,,,0.00,0.0,WeatherDisplay:10.37,2013-07-11 10:08:00,
2013-07-11 03:13:00,53.2,51.2,29.92,WSW,254,0.2,2.3,93,0.00,,,0.00,0.0,WeatherDisplay:10.37,2013-07-11 10:13:00,
2013-07-11 03:18:00,53.2,51.5,29.92,SW,233,5.8,9.2,94,0.00,,,0.00,0.0,WeatherDisplay:10.37,2013-07-11 10:18:00,
2013-07-11 03:23:00,53.2,51.5,29.92,SW,226,3.1,3.5,94,0.00,,,0.00,0.0,WeatherDisplay:10.37,2013-07-11 10:23:00,
2013-07-11 03:28:00,53.2,51.2,29.92,WSW,247,4.7,10.4,93,0.00,,,0.00,0.0,WeatherDisplay:10.37,2013-07-11 10:28:00,
2013-07-11 03:33:00,53.1,51.4,29.92,WSW,237,4.8,12.0,94,0.00,,,0.00,0.0,WeatherDisplay:10.37,2013-07-11 10:33:00,
2013-07-11 03:38:00,53.0,51.0,29.92,SW,231,2.7,6.0,93,0.00,,,0.00,0.0,WeatherDisplay:10.37,2013-07-11 10:38:00,
2013-07-11 03:43:00,53.0,51.3,29.92,WSW,242,1.5,4.0,94,0.00,,,0.00,0.0,WeatherDisplay:10.37,2013-07-11 10:43:00,
2013-07-11 03:48:00,53.0,51.3,29.91,SW,233,3.7,8.1,94,0.00,,,0.00,0.0,WeatherDisplay:10.37,2013-07-11 10:48:00,
2013-07-11 03:53:00,53.0,51.3,29.92,WNW,299,1.8,4.6,94,0.00,,,0.00,0.0,WeatherDisplay:10.37,2013-07-11 10:53:00,
2013-07-11 03:58:00,53.0,51.3,29.91,SSW,202,1.2,3.0,94,0.00,,,0.00,0.0,WeatherDisplay:10.37,2013-07-11 10:58:00,
2013-07-11 04:03:00,53.1,51.4,29.92,SW,222,4.7,5.8,94,0.00,,,0.00,0.0,WeatherDisplay:10.37,2013-07-11 11:03:00,
2013-07-11 04:08:00,53.1,51.4,29.92,SW,217,0.4,2.3,94,0.00,,,0.00,0.0,WeatherDisplay:10.37,2013-07-11 11:08:00,
2013-07-11 04:13:00,53.1,51.4,29.92,SW,229,2.6,4.6,94,0.00,,,0.00,0.0,WeatherDisplay:10.37,2013-07-11 11:13:00,
2013-07-11 04:18:00,53.1,51.4,29.92,SW,233,1.3,3.5,94,0.00,,,0.00,0.0,WeatherDisplay:10.37,2013-07-11 11:18:00,
2013-07-11 04:23:00,53.1,51.4,29.92,SW,231,3.8,8.1,94,0.00,,,0.00,0.0,WeatherDisplay:10.37,2013-07-11 11:23:00,
2013-07-11 04:28:00,52.9,50.9,29.92,SW,217,3.6,8.1,93,0.00,,,0.00,0.0,WeatherDisplay:10.37,2013-07-11 11:28:00,
2013-07-11 04:33:00,52.8,50.8,29.92,WSW,246,1.7,3.5,93,0.00,,,0.00,0.0,WeatherDisplay:10.37,2013-07-11 11:33:00,
2013-07-11 04:38:00,52.8,51.1,29.92,SW,232,4.2,5.8,94,0.00,,,0.00,0.0,WeatherDisplay:10.37,2013-07-11 11:38:00,
2013-07-11 04:43:00,52.7,50.7,29.92,WSW,238,5.1,6.9,93,0.00,,,0.00,0.0,WeatherDisplay:10.37,2013-07-11 11:43:00,
2013-07-11 04:48:00,52.6,50.6,29.92,SSW,206,4.6,5.8,93,0.00,,,0.00,0.0,WeatherDisplay:10.37,2013-07-11 11:48:00,
2013-07-11 04:53:00,52.5,50.5,29.92,SSW,211,3.6,9.2,93,0.00,,,0.00,0.0,WeatherDisplay:10.37,2013-07-11 11:53:00,
2013-07-11 04:58:00,52.5,50.5,29.92,SSW,202,4.2,5.8,93,0.00,,,0.00,0.0,WeatherDisplay:10.37,2013-07-11 11:58:00,
2013-07-11 05:03:00,52.4,50.4,29.92,SSW,192,2.6,4.6,93,0.00,,,0.00,0.0,WeatherDisplay:10.37,2013-07-11 12:03:00,
2013-07-11 05:08:00,52.5,50.5,29.92,SW,233,5.5,10.4,93,0.00,,,0.00,0.0,WeatherDisplay:10.37,2013-07-11 12:08:00,
2013-07-11 05:13:00,52.4,50.4,29.92,SSW,210,4.2,9.2,93,0.00,,,0.00,0.0,WeatherDisplay:10.37,2013-07-11 12:13:00,
2013-07-11 05:18:00,52.4,50.4,29.92,SW,231,5.4,9.2,93,0.00,,,0.00,0.0,WeatherDisplay:10.37,2013-07-11 12:18:00,
2013-07-11 05:23:00,52.3,50.3,29.92,SSW,199,3.2,5.8,93,0.00,,,0.00,0.0,WeatherDisplay:10.37,2013-07-11 12:23:00,
2013-07-11 05:28:00,52.3,50.3,29.92,SW,219,5.3,6.9,93,0.00,,,0.00,0.0,WeatherDisplay:10.37,2013-07-11 12:28:00,
2013-07-11 05:33:00,52.3,50.6,29.93,SW,217,6.7,10.4,94,0.00,,,0.00,0.0,WeatherDisplay:10.37,2013-07-11 12:33:00,
2013-07-11 05:38:00,52.3,50.3,29.93,SSW,211,4.9,8.1,93,0.00,,,0.00,0.0,WeatherDisplay:10.37,2013-07-11 12:38:00,
2013-07-11 05:43:00,52.3,50.3,29.93,SSW,201,2.8,6.0,93,0.00,,,0.00,0.0,WeatherDisplay:10.37,2013-07-11 12:43:00,
2013-07-11 05:48:00,52.4,50.7,29.93,SSW,194,3.2,6.0,94,0.00,,,0.00,0.0,WeatherDisplay:10.37,2013-07-11 12:48:00,
2013-07-11 05:53:00,52.5,50.8,29.93,SW,233,5.7,11.0,94,0.00,,,0.00,0.0,WeatherDisplay:10.37,2013-07-11 12:53:00,
2013-07-11 05:59:00,52.5,50.5,29.93,South,184,7.9,11.5,93,0.00,,,0.00,0.0,WeatherDisplay:10.37,2013-07-11 12:59:00,
2013-07-11 06:04:00,52.4,50.4,29.93,SW,215,7.9,11.5,93,0.00,,,0.00,0.0,WeatherDisplay:10.37,2013-07-11 13:04:00,
2013-07-11 06:09:00,52.4,50.4,29.93,SW,229,0.8,3.5,93,0.00,,,0.00,0.0,WeatherDisplay:10.37,2013-07-11 13:09:00,
2013-07-11 06:15:00,52.5,50.5,29.94,SSW,210,5.0,7.0,93,0.00,,,0.00,0.0,WeatherDisplay:10.37,2013-07-11 13:15:00,
2013-07-11 06:20:00,52.6,50.6,29.94,SSW,212,2.2,6.9,93,0.00,,,0.00,5.0,WeatherDisplay:10.37,2013-07-11 13:20:00,
2013-07-11 06:25:00,52.6,50.6,29.94,SW,232,4.7,9.2,93,0.00,,,0.00,7.0,WeatherDisplay:10.37,2013-07-11 13:25:00,
2013-07-11 06:30:00,52.6,50.6,29.94,SW,217,2.8,5.8,93,0.00,,,0.00,9.0,WeatherDisplay:10.37,2013-07-11 13:30:00,
2013-07-11 06:35:00,52.7,51.0,29.94,South,185,1.8,4.0,94,0.00,,,0.00,11.0,WeatherDisplay:10.37,2013-07-11 13:35:00,
2013-07-11 06:40:00,52.8,51.1,29.93,SSW,204,4.1,5.8,94,0.00,,,0.00,12.0,WeatherDisplay:10.37,2013-07-11 13:40:00,
2013-07-11 06:45:00,52.8,50.8,29.93,South,190,4.7,6.9,93,0.00,,,0.00,14.0,WeatherDisplay:10.37,2013-07-11 13:45:00,
2013-07-11 06:51:00,52.9,50.9,29.94,WSW,252,4.4,6.9,93,0.00,,,0.00,16.0,WeatherDisplay:10.37,2013-07-11 13:51:00,
2013-07-11 06:56:00,53.0,51.0,29.94,WSW,244,2.8,4.6,93,0.00,,,0.00,18.0,WeatherDisplay:10.37,2013-07-11 13:56:00,
2013-07-11 07:02:00,53.1,51.1,29.94,SW,234,1.8,3.5,93,0.00,OVC,,0.00,18.0,WeatherDisplay:10.37,2013-07-11 14:02:00,
2013-07-11 07:07:00,53.2,51.2,29.94,SW,236,4.3,7.0,93,0.00,OVC,,0.00,21.0,WeatherDisplay:10.37,2013-07-11 14:07:00,
2013-07-11 07:13:00,53.2,51.2,29.94,West,262,4.3,9.0,93,0.00,OVC,,0.00,26.0,WeatherDisplay:10.37,2013-07-11 14:13:00,
2013-07-11 07:18:00,53.2,51.2,29.94,SW,233,3.6,6.9,93,0.00,OVC,,0.00,32.0,WeatherDisplay:10.37,2013-07-11 14:18:00,
2013-07-11 07:23:00,53.3,51.3,29.94,SW,225,5.9,8.1,93,0.00,OVC,,0.00,33.0,WeatherDisplay:10.37,2013-07-11 14:23:00,
2013-07-11 07:28:00,53.4,51.4,29.94,WSW,239,4.0,5.8,93,0.00,OVC,,0.00,35.0,WeatherDisplay:10.37,2013-07-11 14:28:00,
2013-07-11 07:33:00,53.6,51.9,29.94,WSW,246,6.9,9.0,94,0.00,OVC,,0.00,40.0,WeatherDisplay:10.37,2013-07-11 14:33:00,
2013-07-11 07:39:00,53.6,51.6,29.94,SW,222,7.2,11.5,93,0.00,OVC,,0.00,51.0,WeatherDisplay:10.37,2013-07-11 14:39:00,
2013-07-11 07:44:00,53.5,51.5,29.94,WSW,238,6.3,11.5,93,0.00,OVC,,0.00,49.0,WeatherDisplay:10.37,2013-07-11 14:44:00,
2013-07-11 07:49:00,53.5,51.5,29.94,West,269,2.7,3.5,93,0.00,OVC,,0.00,53.0,WeatherDisplay:10.37,2013-07-11 14:49:00,
2013-07-11 07:54:00,53.5,51.5,29.94,SW,224,7.6,11.0,93,0.00,OVC,,0.00,49.0,WeatherDisplay:10.37,2013-07-11 14:54:00,
2013-07-11 07:59:00,53.6,51.6,29.94,SW,229,8.6,15.0,93,0.00,OVC,,0.00,58.0,WeatherDisplay:10.37,2013-07-11 14:59:00,
2013-07-11 08:05:00,53.7,51.7,29.94,SSW,213,4.9,10.4,93,0.00,OVC,,0.00,62.0,WeatherDisplay:10.37,2013-07-11 15:05:00,
2013-07-11 08:10:00,53.8,51.8,29.94,SSW,208,2.0,7.0,93,0.00,OVC,,0.00,69.0,WeatherDisplay:10.37,2013-07-11 15:10:00,
2013-07-11 08:16:00,53.9,51.9,29.95,SSW,208,6.9,11.5,93,0.00,BKN,,0.00,77.0,WeatherDisplay:10.37,2013-07-11 15:16:00,
2013-07-11 08:21:00,53.8,51.8,29.94,SW,217,2.9,6.9,93,0.00,BKN,,0.00,76.0,WeatherDisplay:10.37,2013-07-11 15:21:00,
2013-07-11 08:26:00,53.9,51.9,29.94,SW,214,1.6,3.5,93,0.00,BKN,,0.00,86.0,WeatherDisplay:10.37,2013-07-11 15:26:00,
2013-07-11 08:31:00,54.0,52.0,29.94,SW,220,3.1,5.8,93,0.00,BKN,,0.00,95.0,WeatherDisplay:10.37,2013-07-11 15:31:00,
2013-07-11 08:36:00,54.1,52.1,29.94,SW,223,2.1,4.6,93,0.00,BKN,,0.00,97.0,WeatherDisplay:10.37,2013-07-11 15:36:00,
2013-07-11 08:42:00,54.2,51.9,29.94,SW,233,1.6,4.6,92,0.00,BKN,,0.00,102.0,WeatherDisplay:10.37,2013-07-11 15:42:00,
2013-07-11 08:47:00,54.3,52.0,29.94,West,278,5.3,5.8,92,0.00,BKN,,0.00,114.0,WeatherDisplay:10.37,2013-07-11 15:47:00,
2013-07-11 08:52:00,54.3,52.0,29.94,SW,226,6.4,11.5,92,0.00,BKN,,0.00,111.0,WeatherDisplay:10.37,2013-07-11 15:52:00,
2013-07-11 08:57:00,54.3,52.0,29.95,SW,236,10.1,13.0,92,0.00,BKN,,0.00,113.0,WeatherDisplay:10.37,2013-07-11 15:57:00,
2013-07-11 09:02:00,54.2,51.9,29.94,SSW,193,6.2,11.5,92,0.00,BKN,,0.00,128.0,WeatherDisplay:10.37,2013-07-11 16:02:00,
2013-07-11 09:07:00,54.1,51.8,29.94,SW,235,5.6,10.4,92,0.00,BKN,,0.00,134.0,WeatherDisplay:10.37,2013-07-11 16:07:00,
2013-07-11 09:13:00,54.2,51.9,29.94,SW,225,9.1,11.5,92,0.00,BKN,,0.00,134.0,WeatherDisplay:10.37,2013-07-11 16:13:00,
2013-07-11 09:18:00,54.2,51.9,29.94,SW,215,5.5,10.4,92,0.00,BKN,,0.00,135.0,WeatherDisplay:10.37,2013-07-11 16:18:00,
2013-07-11 09:23:00,54.4,52.1,29.94,SW,215,3.8,6.9,92,0.00,BKN,,0.00,144.0,WeatherDisplay:10.37,2013-07-11 16:23:00,
2013-07-11 09:29:00,54.5,51.9,29.94,SSW,196,5.3,10.4,91,0.00,SCT,,0.00,172.0,WeatherDisplay:10.37,2013-07-11 16:29:00,
2013-07-11 09:34:00,54.7,52.4,29.94,SW,217,5.0,10.4,92,0.00,BKN,,0.00,153.0,WeatherDisplay:10.37,2013-07-11 16:34:00,
2013-07-11 09:39:00,54.8,52.2,29.94,WSW,243,4.3,13.8,91,0.00,SCT,,0.00,158.0,WeatherDisplay:10.37,2013-07-11 16:39:00,
2013-07-11 09:45:00,54.8,52.2,29.94,SW,227,7.0,14.0,91,0.00,SCT,,0.00,188.0,WeatherDisplay:10.37,2013-07-11 16:45:00,
2013-07-11 09:50:00,54.7,51.8,29.94,WSW,239,8.0,13.0,90,0.00,SCT,,0.00,183.0,WeatherDisplay:10.37,2013-07-11 16:50:00,
2013-07-11 09:55:00,54.7,51.8,29.94,WSW,238,8.0,18.0,90,0.00,FEW,,0.00,199.0,WeatherDisplay:10.37,2013-07-11 16:55:00,
2013-07-11 10:00:00,54.7,51.8,29.94,SW,223,7.0,18.0,90,0.00,CLR,,0.00,214.0,WeatherDisplay:10.37,2013-07-11 17:00:00,
2013-07-11 10:05:00,54.9,52.0,29.94,SW,215,3.3,9.2,90,0.00,CLR,,0.00,214.0,WeatherDisplay:10.37,2013-07-11 17:05:00,
2013-07-11 10:10:00,55.1,52.2,29.94,SW,227,6.0,12.0,90,0.00,CLR,,0.00,230.0,WeatherDisplay:10.37,2013-07-11 17:10:00,
2013-07-11 10:15:00,55.3,52.4,29.94,WSW,239,5.4,12.7,90,0.00,CLR,,0.00,236.0,WeatherDisplay:10.37,2013-07-11 17:15:00,
2013-07-11 10:20:00,55.4,52.2,29.94,SW,227,9.0,17.0,89,0.00,CLR,,0.00,221.0,WeatherDisplay:10.37,2013-07-11 17:20:00,
2013-07-11 10:26:00,55.4,52.2,29.94,SW,225,8.0,11.5,89,0.00,CLR,,0.00,218.0,WeatherDisplay:10.37,2013-07-11 17:26:00,
2013-07-11 10:31:00,55.6,52.7,29.94,SW,233,5.1,6.9,90,0.00,CLR,,0.00,230.0,WeatherDisplay:10.37,2013-07-11 17:31:00,
2013-07-11 10:36:00,55.8,52.6,29.94,SW,230,9.5,11.5,89,0.00,CLR,,0.00,237.0,WeatherDisplay:10.37,2013-07-11 17:36:00,
2013-07-11 10:42:00,55.8,52.6,29.94,SW,227,8.4,15.0,89,0.00,CLR,,0.00,257.0,WeatherDisplay:10.37,2013-07-11 17:42:00,
2013-07-11 10:47:00,55.8,52.3,29.94,SSW,204,13.2,19.6,88,0.00,CLR,,0.00,272.0,WeatherDisplay:10.37,2013-07-11 17:47:00,
2013-07-11 10:52:00,55.8,52.3,29.94,SW,225,9.4,13.8,88,0.00,CLR,,0.00,309.0,WeatherDisplay:10.37,2013-07-11 17:52:00,
2013-07-11 10:57:00,55.9,52.4,29.94,WSW,249,7.3,14.0,88,0.00,CLR,,0.00,299.0,WeatherDisplay:10.37,2013-07-11 17:57:00,
2013-07-11 11:04:00,56.0,52.5,29.94,WSW,248,5.5,13.8,88,0.00,CLR,,0.00,357.0,WeatherDisplay:10.37,2013-07-11 18:04:00,
2013-07-11 11:09:00,56.2,52.4,29.94,SW,233,7.8,13.0,87,0.00,CLR,,0.00,369.0,WeatherDisplay:10.37,2013-07-11 18:09:00,
2013-07-11 11:15:00,56.3,52.5,29.94,SW,222,8.0,18.0,87,0.00,CLR,,0.00,397.0,WeatherDisplay:10.37,2013-07-11 18:15:00,
2013-07-11 11:20:00,56.6,52.8,29.94,WSW,237,9.3,12.7,87,0.00,CLR,,0.00,392.0,WeatherDisplay:10.37,2013-07-11 18:20:00,
2013-07-11 11:25:00,56.7,52.9,29.94,SW,227,7.0,11.5,87,0.00,CLR,,0.00,404.0,WeatherDisplay:10.37,2013-07-11 18:25:00,
2013-07-11 11:30:00,56.9,52.8,29.95,SSW,212,16.0,21.0,86,0.00,CLR,,0.00,510.0,WeatherDisplay:10.37,2013-07-11 18:30:00,
2013-07-11 11:35:00,56.9,52.4,29.94,SW,219,10.3,15.0,85,0.00,CLR,,0.00,487.0,WeatherDisplay:10.37,2013-07-11 18:35:00,
2013-07-11 11:40:00,56.8,52.7,29.94,SW,229,9.0,20.0,86,0.00,OVC,,0.00,457.0,WeatherDisplay:10.37,2013-07-11 18:40:00,
2013-07-11 11:45:00,57.0,52.9,29.94,SW,221,8.9,12.7,86,0.00,OVC,,0.00,629.0,WeatherDisplay:10.37,2013-07-11 18:45:00,
2013-07-11 11:50:00,57.2,53.0,29.94,SW,221,9.0,13.0,86,0.00,OVC,,0.00,563.0,WeatherDisplay:10.37,2013-07-11 18:50:00,
2013-07-11 11:55:00,57.5,53.0,29.94,SW,225,9.2,13.0,85,0.00,OVC,,0.00,654.0,WeatherDisplay:10.37,2013-07-11 18:55:00,
2013-07-11 12:00:00,57.8,53.0,29.94,SW,214,9.8,18.4,84,0.00,OVC,,0.00,719.0,WeatherDisplay:10.37,2013-07-11 19:00:00,
2013-07-11 12:05:00,58.0,53.2,29.94,SSW,208,5.5,13.8,84,0.00,OVC,,0.00,659.0,WeatherDisplay:10.37,2013-07-11 19:05:00,
2013-07-11 12:11:00,58.4,53.3,29.94,West,275,14.9,18.4,83,0.00,OVC,,0.00,728.0,WeatherDisplay:10.37,2013-07-11 19:11:00,
2013-07-11 12:16:00,58.5,53.7,29.94,WNW,284,7.4,8.1,84,0.00,OVC,,0.00,728.0,WeatherDisplay:10.37,2013-07-11 19:16:00,
2013-07-11 12:22:00,58.7,53.2,29.94,SSW,201,8.9,18.4,82,0.00,OVC,,0.00,728.0,WeatherDisplay:10.37,2013-07-11 19:22:00,
2013-07-11 12:27:00,59.1,53.6,29.94,SW,217,11.8,19.6,82,0.00,OVC,,0.00,962.0,WeatherDisplay:10.37,2013-07-11 19:27:00,
2013-07-11 12:33:00,59.8,54.0,29.94,SW,216,6.5,13.8,81,0.00,OVC,,0.00,981.0,WeatherDisplay:10.37,2013-07-11 19:33:00,
2013-07-11 12:38:00,60.2,53.7,29.94,SSW,213,8.4,13.8,79,0.00,OVC,,0.00,1046.0,WeatherDisplay:10.37,2013-07-11 19:38:00,
2013-07-11 12:43:00,60.1,53.6,29.94,SW,224,13.7,19.6,79,0.00,OVC,,0.00,1062.0,WeatherDisplay:10.37,2013-07-11 19:43:00,
2013-07-11 12:48:00,59.8,53.6,29.94,SW,215,12.7,18.4,80,0.00,OVC,,0.00,1056.0,WeatherDisplay:10.37,2013-07-11 19:48:00,
2013-07-11 12:53:00,59.7,53.5,29.94,South,189,12.6,20.7,80,0.00,OVC,,0.00,1065.0,WeatherDisplay:10.37,2013-07-11 19:53:00,
2013-07-11 12:58:00,59.7,53.5,29.94,SW,234,15.3,21.9,80,0.00,OVC,,0.00,1192.0,WeatherDisplay:10.37,2013-07-11 19:58:00,
2013-07-11 13:04:00,60.0,53.8,29.94,SSW,207,11.3,12.7,80,0.00,OVC,,0.00,856.0,WeatherDisplay:10.37,2013-07-11 20:04:00,
2013-07-11 13:09:00,60.3,53.8,29.94,SW,218,9.6,16.1,79,0.00,OVC,,0.00,670.0,WeatherDisplay:10.37,2013-07-11 20:09:00,
2013-07-11 13:15:00,60.1,53.6,29.94,WSW,251,9.0,18.0,79,0.00,OVC,,0.00,647.0,WeatherDisplay:10.37,2013-07-11 20:15:00,
2013-07-11 13:20:00,60.2,54.0,29.94,WSW,248,6.8,11.5,80,0.00,OVC,,0.00,654.0,WeatherDisplay:10.37,2013-07-11 20:20:00,
2013-07-11 13:25:00,60.5,54.0,29.94,West,269,7.8,12.7,79,0.00,OVC,,0.00,932.0,WeatherDisplay:10.37,2013-07-11 20:25:00,
2013-07-11 13:30:00,60.4,53.5,29.94,WSW,256,4.5,10.4,78,0.00,OVC,,0.00,1262.0,WeatherDisplay:10.37,2013-07-11 20:30:00,
2013-07-11 13:35:00,59.6,53.1,29.94,West,264,9.2,12.7,79,0.00,OVC,,0.00,1262.0,WeatherDisplay:10.37,2013-07-11 20:35:00,
2013-07-11 13:40:00,59.4,53.2,29.94,WSW,244,10.3,13.8,80,0.00,OVC,,0.00,1262.0,WeatherDisplay:10.37,2013-07-11 20:40:00,
2013-07-11 13:46:00,59.6,53.4,29.94,SW,229,8.5,16.1,80,0.00,OVC,,0.00,780.0,WeatherDisplay:10.37,2013-07-11 20:46:00,
2013-07-11 13:51:00,59.5,53.3,29.94,West,281,6.9,10.4,80,0.00,OVC,,0.00,780.0,WeatherDisplay:10.37,2013-07-11 20:51:00,
2013-07-11 13:56:00,59.7,53.5,29.94,SW,223,10.1,17.3,80,0.00,OVC,,0.00,812.0,WeatherDisplay:10.37,2013-07-11 20:56:00,
2013-07-11 14:02:00,59.7,53.5,29.94,SSW,212,7.0,13.8,80,0.00,OVC,,0.00,476.0,WeatherDisplay:10.37,2013-07-11 21:02:00,
2013-07-11 14:07:00,59.3,52.8,29.94,WSW,246,9.9,16.1,79,0.00,OVC,,0.00,476.0,WeatherDisplay:10.37,2013-07-11 21:07:00,
2013-07-11 14:12:00,58.8,53.0,29.94,SW,227,11.8,19.6,81,0.00,OVC,,0.00,508.0,WeatherDisplay:10.37,2013-07-11 21:12:00,
2013-07-11 14:17:00,58.9,53.1,29.93,WSW,256,9.2,16.1,81,0.00,OVC,,0.00,536.0,WeatherDisplay:10.37,2013-07-11 21:17:00,
2013-07-11 14:23:00,59.3,53.5,29.93,WSW,254,7.0,15.0,81,0.00,OVC,,0.00,585.0,WeatherDisplay:10.37,2013-07-11 21:23:00,
2013-07-11 14:29:00,59.4,53.2,29.93,SW,231,13.2,19.6,80,0.00,OVC,,0.00,693.0,WeatherDisplay:10.37,2013-07-11 21:29:00,
2013-07-11 14:34:00,59.5,53.3,29.93,WSW,237,10.4,17.3,80,0.00,OVC,,0.00,587.0,WeatherDisplay:10.37,2013-07-11 21:34:00,
2013-07-11 14:39:00,59.5,53.3,29.93,WNW,290,9.1,13.8,80,0.00,OVC,,0.00,501.0,WeatherDisplay:10.37,2013-07-11 21:39:00,
2013-07-11 14:44:00,59.0,53.2,29.93,West,276,9.1,19.6,81,0.00,OVC,,0.00,575.0,WeatherDisplay:10.37,2013-07-11 21:44:00,
2013-07-11 14:50:00,58.5,52.7,29.93,West,266,7.2,16.1,81,0.00,OVC,,0.00,587.0,WeatherDisplay:10.37,2013-07-11 21:50:00,
2013-07-11 14:55:00,58.7,52.8,29.93,West,273,10.0,16.0,81,0.00,OVC,,0.00,643.0,WeatherDisplay:10.37,2013-07-11 21:55:00,
2013-07-11 15:00:00,59.1,53.0,29.93,West,264,7.0,18.0,80,0.00,OVC,,0.00,682.0,WeatherDisplay:10.37,2013-07-11 22:00:00,
2013-07-11 15:05:00,59.3,52.8,29.93,NW,317,10.3,18.4,79,0.00,OVC,,0.00,494.0,WeatherDisplay:10.37,2013-07-11 22:05:00,
2013-07-11 15:10:00,59.0,52.8,29.92,WSW,254,13.0,22.0,80,0.00,OVC,,0.00,724.0,WeatherDisplay:10.37,2013-07-11 22:10:00,
2013-07-11 15:15:00,58.8,53.3,29.92,West,263,6.0,18.0,82,0.00,OVC,,0.00,798.0,WeatherDisplay:10.37,2013-07-11 22:15:00,
2013-07-11 15:20:00,59.4,53.2,29.92,West,263,10.0,20.0,80,0.00,OVC,,0.00,879.0,WeatherDisplay:10.37,2013-07-11 22:20:00,
2013-07-11 15:25:00,59.5,53.3,29.91,WSW,237,9.0,24.0,80,0.00,OVC,,0.00,796.0,WeatherDisplay:10.37,2013-07-11 22:25:00,
2013-07-11 15:30:00,59.7,53.2,29.91,SW,234,12.0,23.0,79,0.00,OVC,,0.00,939.0,WeatherDisplay:10.37,2013-07-11 22:30:00,
2013-07-11 15:35:00,59.7,53.2,29.91,SW,234,9.0,24.0,79,0.00,OVC,,0.00,874.0,WeatherDisplay:10.37,2013-07-11 22:35:00,
2013-07-11 15:40:00,60.0,53.4,29.91,SW,233,8.0,20.0,79,0.00,OVC,,0.00,819.0,WeatherDisplay:10.37,2013-07-11 22:40:00,
2013-07-11 15:45:00,60.5,53.6,29.91,WSW,240,10.5,15.0,78,0.00,OVC,,0.00,828.0,WeatherDisplay:10.37,2013-07-11 22:45:00,
2013-07-11 15:50:00,60.3,53.0,29.91,WSW,250,9.0,20.0,77,0.00,OVC,,0.00,865.0,WeatherDisplay:10.37,2013-07-11 22:50:00,
2013-07-11 15:55:00,60.0,53.1,29.91,SW,231,11.7,17.3,78,0.00,OVC,,0.00,828.0,WeatherDisplay:10.37,2013-07-11 22:55:00,
2013-07-11 16:00:00,59.5,53.0,29.91,WSW,239,13.5,19.6,79,0.00,OVC,,0.00,807.0,WeatherDisplay:10.37,2013-07-11 23:00:00,
2013-07-11 16:05:00,59.4,52.9,29.91,West,267,6.2,11.5,79,0.00,OVC,,0.00,596.0,WeatherDisplay:10.37,2013-07-11 23:05:00,
2013-07-11 16:10:00,59.3,52.8,29.91,SW,216,12.2,23.0,79,0.00,OVC,,0.00,489.0,WeatherDisplay:10.37,2013-07-11 23:10:00,
2013-07-11 16:16:00,59.8,53.3,29.91,WSW,243,9.0,16.0,79,0.00,OVC,,0.00,707.0,WeatherDisplay:10.37,2013-07-11 23:16:00,
2013-07-11 16:21:00,59.8,52.9,29.91,West,273,10.8,18.0,78,0.00,OVC,,0.00,501.0,WeatherDisplay:10.37,2013-07-11 23:21:00,
2013-07-11 16:28:00,58.9,52.4,29.90,NW,309,10.4,16.1,79,0.00,OVC,,0.00,619.0,WeatherDisplay:10.37,2013-07-11 23:28:00,
2013-07-11 16:33:00,58.6,52.8,29.90,SW,223,7.4,13.8,81,0.00,OVC,,0.00,517.0,WeatherDisplay:10.37,2013-07-11 23:33:00,
2013-07-11 16:38:00,59.0,53.2,29.90,SW,229,12.2,13.8,81,0.00,OVC,,0.00,353.0,WeatherDisplay:10.37,2013-07-11 23:38:00,
2013-07-11 16:44:00,59.2,53.0,29.90,WSW,246,10.8,16.1,80,0.00,OVC,,0.00,554.0,WeatherDisplay:10.37,2013-07-11 23:44:00,
2013-07-11 16:49:00,59.2,53.0,29.90,West,260,6.1,16.1,80,0.00,OVC,,0.00,381.0,WeatherDisplay:10.37,2013-07-11 23:49:00,
2013-07-11 16:54:00,59.4,53.6,29.90,SSW,204,9.3,15.0,81,0.00,OVC,,0.00,696.0,WeatherDisplay:10.37,2013-07-11 23:54:00,
2013-07-11 17:00:00,59.8,53.3,29.90,SW,236,10.0,16.0,79,0.00,OVC,,0.00,510.0,WeatherDisplay:10.37,2013-07-12 00:00:00,
2013-07-11 17:05:00,59.9,53.4,29.89,WSW,248,10.0,17.3,79,0.00,OVC,,0.00,673.0,WeatherDisplay:10.37,2013-07-12 00:05:00,
2013-07-11 17:10:00,59.6,53.1,29.89,WSW,244,7.0,21.0,79,0.00,OVC,,0.00,596.0,WeatherDisplay:10.37,2013-07-12 00:10:00,
2013-07-11 17:15:00,59.4,53.2,29.89,WSW,248,8.0,18.0,80,0.00,OVC,,0.00,645.0,WeatherDisplay:10.37,2013-07-12 00:15:00,
2013-07-11 17:20:00,59.3,52.8,29.89,West,259,9.7,16.1,79,0.00,OVC,,0.00,322.0,WeatherDisplay:10.37,2013-07-12 00:20:00,
2013-07-11 17:25:00,59.1,52.6,29.89,SW,232,13.7,19.6,79,0.00,OVC,,0.00,540.0,WeatherDisplay:10.37,2013-07-12 00:25:00,
2013-07-11 17:30:00,58.8,52.6,29.89,SSW,205,10.8,19.6,80,0.00,OVC,,0.00,515.0,WeatherDisplay:10.37,2013-07-12 00:30:00,
2013-07-11 17:36:00,58.9,53.1,29.89,SW,223,9.1,12.0,81,0.00,OVC,,0.00,568.0,WeatherDisplay:10.37,2013-07-12 00:36:00,
2013-07-11 17:41:00,59.2,53.0,29.89,WSW,256,8.5,16.1,80,0.00,OVC,,0.00,526.0,WeatherDisplay:10.37,2013-07-12 00:41:00,
2013-07-11 17:46:00,59.1,52.9,29.89,SSW,200,9.1,17.3,80,0.00,OVC,,0.00,394.0,WeatherDisplay:10.37,2013-07-12 00:46:00,
2013-07-11 17:51:00,59.2,53.0,29.89,West,271,5.8,11.5,80,0.00,OVC,,0.00,462.0,WeatherDisplay:10.37,2013-07-12 00:51:00,
2013-07-11 17:56:00,59.3,52.8,29.89,West,281,5.2,13.8,79,0.00,OVC,,0.00,374.0,WeatherDisplay:10.37,2013-07-12 00:56:00,
2013-07-11 18:02:00,59.5,53.3,29.89,SSW,198,6.1,11.5,80,0.00,OVC,,0.00,427.0,WeatherDisplay:10.37,2013-07-12 01:02:00,
2013-07-11 18:07:00,59.3,52.8,29.89,SSW,210,11.3,13.8,79,0.00,OVC,,0.00,250.0,WeatherDisplay:10.37,2013-07-12 01:07:00,
2013-07-11 18:13:00,58.5,52.4,29.90,West,267,9.5,13.8,80,0.00,OVC,,0.00,278.0,WeatherDisplay:10.37,2013-07-12 01:13:00,
2013-07-11 18:18:00,58.0,52.5,29.89,WSW,243,7.8,11.5,82,0.00,OVC,,0.00,241.0,WeatherDisplay:10.37,2013-07-12 01:18:00,
2013-07-11 18:23:00,57.9,52.4,29.89,SW,229,10.0,12.7,82,0.00,OVC,,0.00,171.0,WeatherDisplay:10.37,2013-07-12 01:23:00,
2013-07-11 18:28:00,57.5,52.0,29.89,SSW,200,8.0,16.1,82,0.00,OVC,,0.00,165.0,WeatherDisplay:10.37,2013-07-12 01:28:00,
2013-07-11 18:33:00,57.1,52.0,29.89,West,266,9.2,15.0,83,0.00,OVC,,0.00,148.0,WeatherDisplay:10.37,2013-07-12 01:33:00,
2013-07-11 18:38:00,56.9,52.1,29.89,South,175,6.1,11.0,84,0.00,OVC,,0.00,139.0,WeatherDisplay:10.37,2013-07-12 01:38:00,
2013-07-11 18:43:00,56.8,52.0,29.89,West,260,5.0,6.9,84,0.00,OVC,,0.00,142.0,WeatherDisplay:10.37,2013-07-12 01:43:00,
2013-07-11 18:49:00,56.7,52.2,29.89,SW,219,8.1,17.3,85,0.00,OVC,,0.00,135.0,WeatherDisplay:10.37,2013-07-12 01:49:00,
2013-07-11 18:54:00,56.5,52.0,29.89,WSW,248,8.9,16.1,85,0.00,OVC,,0.00,132.0,WeatherDisplay:10.37,2013-07-12 01:54:00,
2013-07-11 19:00:00,56.3,52.2,29.89,SW,231,10.9,13.8,86,0.00,OVC,,0.00,95.0,WeatherDisplay:10.37,2013-07-12 02:00:00,
2013-07-11 19:05:00,56.1,52.0,29.89,North,10,9.0,17.3,86,0.00,,,0.00,90.0,WeatherDisplay:10.37,2013-07-12 02:05:00,
2013-07-11 19:10:00,56.0,52.2,29.89,SW,236,6.0,14.0,87,0.00,,,0.00,83.0,WeatherDisplay:10.37,2013-07-12 02:10:00,
2013-07-11 19:15:00,56.0,51.9,29.89,SW,236,7.0,15.0,86,0.00,,,0.00,70.0,WeatherDisplay:10.37,2013-07-12 02:15:00,
2013-07-11 19:20:00,56.1,52.3,29.89,SW,229,5.2,5.8,87,0.00,,,0.00,81.0,WeatherDisplay:10.37,2013-07-12 02:20:00,
2013-07-11 19:26:00,56.0,51.9,29.89,WSW,243,5.4,12.7,86,0.00,,,0.00,67.0,WeatherDisplay:10.37,2013-07-12 02:26:00,
2013-07-11 19:31:00,55.9,52.1,29.89,SSE,163,3.4,10.4,87,0.00,,,0.00,46.0,WeatherDisplay:10.37,2013-07-12 02:31:00,
2013-07-11 19:36:00,55.9,52.1,29.89,West,273,3.2,10.0,87,0.00,,,0.00,46.0,WeatherDisplay:10.37,2013-07-12 02:36:00,
2013-07-11 19:41:00,55.7,51.9,29.89,SW,236,1.4,5.8,87,0.00,,,0.00,42.0,WeatherDisplay:10.37,2013-07-12 02:41:00,
2013-07-11 19:46:00,55.7,51.9,29.89,West,268,3.5,5.8,87,0.00,,,0.00,25.0,WeatherDisplay:10.37,2013-07-12 02:46:00,
2013-07-11 19:51:00,55.7,52.2,29.89,WSW,245,3.9,10.4,88,0.00,,,0.00,25.0,WeatherDisplay:10.37,2013-07-12 02:51:00,
2013-07-11 19:56:00,55.6,52.1,29.89,WSW,246,0.8,4.6,88,0.00,,,0.00,16.0,WeatherDisplay:10.37,2013-07-12 02:56:00,
2013-07-11 20:01:00,55.6,52.1,29.89,West,268,1.8,3.5,88,0.00,,,0.00,18.0,WeatherDisplay:10.37,2013-07-12 03:01:00,
2013-07-11 20:07:00,55.5,51.7,29.89,WSW,252,5.9,11.5,87,0.00,,,0.00,11.0,WeatherDisplay:10.37,2013-07-12 03:07:00,
2013-07-11 20:12:00,55.3,51.5,29.89,WSW,254,4.8,9.2,87,0.00,,,0.00,7.0,WeatherDisplay:10.37,2013-07-12 03:12:00,
2013-07-11 20:17:00,55.3,51.8,29.89,West,262,3.1,6.0,88,0.00,,,0.00,5.0,WeatherDisplay:10.37,2013-07-12 03:17:00,
2013-07-11 20:22:00,55.3,51.8,29.89,WSW,254,3.8,6.9,88,0.00,,,0.00,0.0,WeatherDisplay:10.37,2013-07-12 03:22:00,
2013-07-11 20:28:00,55.3,51.8,29.89,SSW,210,5.3,13.8,88,0.00,,,0.00,0.0,WeatherDisplay:10.37,2013-07-12 03:28:00,
2013-07-11 20:34:00,55.4,51.9,29.89,West,267,1.7,5.8,88,0.00,,,0.00,0.0,WeatherDisplay:10.37,2013-07-12 03:34:00,
2013-07-11 20:39:00,55.3,51.8,29.89,WNW,301,4.2,9.2,88,0.00,,,0.00,0.0,WeatherDisplay:10.37,2013-07-12 03:39:00,
2013-07-11 20:44:00,55.3,51.8,29.90,WSW,239,5.4,11.5,88,0.00,,,0.00,0.0,WeatherDisplay:10.37,2013-07-12 03:44:00,
2013-07-11 20:49:00,55.3,51.8,29.90,SW,231,6.5,11.5,88,0.00,,,0.00,0.0,WeatherDisplay:10.37,2013-07-12 03:49:00,
2013-07-11 20:54:00,55.3,51.8,29.90,SSW,207,7.9,15.0,88,0.00,,,0.00,0.0,WeatherDisplay:10.37,2013-07-12 03:54:00,
2013-07-11 21:00:00,55.3,51.8,29.90,SW,233,8.0,21.0,88,0.00,,,0.00,0.0,WeatherDisplay:10.37,2013-07-12 04:00:00,
2013-07-11 21:01:00,55.3,51.8,29.90,SW,235,9.5,16.1,88,0.00,,,0.00,0.0,WeatherDisplay:10.37,2013-07-12 04:01:00,
2013-07-11 21:06:00,55.1,51.6,29.90,SW,225,11.0,15.0,88,0.00,,,0.00,0.0,WeatherDisplay:10.37,2013-07-12 04:06:00,
2013-07-11 21:11:00,55.0,51.5,29.90,SSW,211,6.8,10.4,88,0.00,,,0.00,0.0,WeatherDisplay:10.37,2013-07-12 04:11:00,
2013-07-11 21:16:00,55.0,51.5,29.91,WSW,250,6.0,13.8,88,0.00,,,0.00,0.0,WeatherDisplay:10.37,2013-07-12 04:16:00,
2013-07-11 21:21:00,55.0,51.5,29.90,SW,223,6.0,9.2,88,0.00,,,0.00,0.0,WeatherDisplay:10.37,2013-07-12 04:21:00,
2013-07-11 21:26:00,55.1,51.6,29.91,WSW,248,2.9,4.0,88,0.00,,,0.00,0.0,WeatherDisplay:10.37,2013-07-12 04:26:00,
2013-07-11 21:31:00,55.1,51.6,29.91,SSW,196,5.0,5.8,88,0.00,,,0.00,0.0,WeatherDisplay:10.37,2013-07-12 04:31:00,
2013-07-11 21:36:00,55.1,51.6,29.91,SW,236,10.8,11.5,88,0.00,,,0.00,0.0,WeatherDisplay:10.37,2013-07-12 04:36:00,
2013-07-11 21:41:00,55.1,51.6,29.92,SW,225,6.2,12.0,88,0.00,,,0.00,0.0,WeatherDisplay:10.37,2013-07-12 04:41:00,
2013-07-11 21:46:00,55.0,51.5,29.92,SW,227,11.1,19.6,88,0.00,,,0.00,0.0,WeatherDisplay:10.37,2013-07-12 04:46:00,
2013-07-11 21:51:00,55.0,51.5,29.91,SW,229,7.0,12.7,88,0.00,,,0.00,0.0,WeatherDisplay:10.37,2013-07-12 04:51:00,
2013-07-11 21:56:00,55.0,51.5,29.92,SW,233,8.1,12.7,88,0.00,,,0.00,0.0,WeatherDisplay:10.37,2013-07-12 04:56:00,
2013-07-11 22:01:00,54.9,51.4,29.92,WSW,240,11.1,16.1,88,0.00,,,0.00,0.0,WeatherDisplay:10.37,2013-07-12 05:01:00,
2013-07-11 22:07:00,54.9,51.4,29.92,SW,219,5.8,10.4,88,0.00,,,0.00,0.0,WeatherDisplay:10.37,2013-07-12 05:07:00,
2013-07-11 22:12:00,55.0,51.5,29.92,South,188,10.1,12.7,88,0.00,,,0.00,0.0,WeatherDisplay:10.37,2013-07-12 05:12:00,
2013-07-11 22:17:00,55.0,51.5,29.92,SW,224,4.1,9.2,88,0.00,,,0.00,0.0,WeatherDisplay:10.37,2013-07-12 05:17:00,
2013-07-11 22:22:00,55.0,51.5,29.92,WSW,244,8.4,11.5,88,0.00,,,0.00,0.0,WeatherDisplay:10.37,2013-07-12 05:22:00,
2013-07-11 22:27:00,54.9,51.4,29.92,SW,235,7.5,18.4,88,0.00,,,0.00,0.0,WeatherDisplay:10.37,2013-07-12 05:27:00,
2013-07-11 22:32:00,54.9,51.4,29.92,West,270,4.3,9.2,88,0.00,,,0.00,0.0,WeatherDisplay:10.37,2013-07-12 05:32:00,
2013-07-11 22:37:00,55.0,51.5,29.92,SW,223,7.2,11.5,88,0.00,,,0.00,0.0,WeatherDisplay:10.37,2013-07-12 05:37:00,
2013-07-11 22:42:00,55.0,51.5,29.92,WSW,237,10.3,16.1,88,0.00,,,0.00,0.0,WeatherDisplay:10.37,2013-07-12 05:42:00,
2013-07-11 22:47:00,55.0,51.5,29.92,SW,221,9.9,13.8,88,0.00,,,0.00,0.0,WeatherDisplay:10.37,2013-07-12 05:47:00,
2013-07-11 22:52:00,55.0,51.5,29.92,SSW,212,5.3,11.5,88,0.00,,,0.00,0.0,WeatherDisplay:10.37,2013-07-12 05:52:00,
2013-07-11 22:57:00,55.0,51.5,29.92,SW,215,7.0,12.7,88,0.00,,,0.00,0.0,WeatherDisplay:10.37,2013-07-12 05:57:00,
2013-07-11 23:02:00,55.1,51.6,29.92,WSW,245,7.4,12.7,88,0.00,,,0.00,0.0,WeatherDisplay:10.37,2013-07-12 06:02:00,
2013-07-11 23:07:00,55.1,51.6,29.92,South,181,3.4,5.0,88,0.00,,,0.00,0.0,WeatherDisplay:10.37,2013-07-12 06:07:00,
2013-07-11 23:12:00,55.3,51.8,29.92,WSW,244,6.4,10.4,88,0.00,,,0.00,0.0,WeatherDisplay:10.37,2013-07-12 06:12:00,
2013-07-11 23:17:00,55.3,51.8,29.92,SSW,212,6.7,11.5,88,0.00,,,0.00,0.0,WeatherDisplay:10.37,2013-07-12 06:17:00,
2013-07-11 23:22:00,55.4,51.9,29.92,NW,313,6.4,11.5,88,0.00,,,0.00,0.0,WeatherDisplay:10.37,2013-07-12 06:22:00,
2013-07-11 23:27:00,55.4,51.6,29.92,SSW,212,6.5,11.5,87,0.00,,,0.00,0.0,WeatherDisplay:10.37,2013-07-12 06:27:00,
2013-07-11 23:32:00,55.4,51.6,29.92,South,175,6.6,11.5,87,0.00,,,0.00,0.0,WeatherDisplay:10.37,2013-07-12 06:32:00,
2013-07-11 23:37:00,55.5,51.7,29.92,SW,223,8.0,15.0,87,0.00,,,0.00,0.0,WeatherDisplay:10.37,2013-07-12 06:37:00,
2013-07-11 23:42:00,55.5,51.7,29.92,SW,235,9.4,11.5,87,0.00,,,0.00,0.0,WeatherDisplay:10.37,2013-07-12 06:42:00,
2013-07-11 23:47:00,55.5,51.7,29.92,WSW,239,3.8,6.0,87,0.00,,,0.00,0.0,WeatherDisplay:10.37,2013-07-12 06:47:00,
2013-07-11 23:52:00,55.7,51.9,29.92,WSW,255,5.6,11.5,87,0.00,,,0.00,0.0,WeatherDisplay:10.37,2013-07-12 06:52:00,
2013-07-11 23:57:00,55.7,51.9,29.92,SW,221,11.4,15.0,87,0.00,,,0.00,0.0,WeatherDisplay:10.37,2013-07-12 06:57:00,